PROGRESS-M 29M

Last updated on Fri Apr 08 2016 17:35:58 GMT+0000 (Coordinated Universal Time)

1 40944U 15055A 16099.44061493 .00013326 00000-0 16566-3 0 9995 2 40944 51.6445 45.5459 0021313 283.1588 174.8497 15.60071050 29528

Satellite not in orbit